Theta_e
297 299 301 303 305 307 309 312 313 313 313 313 311 311 309 308 307 300 291 294 293 286 283 285 285 283 282 281 277 275 274 272 268 264 262 261 260 265 264 269 270 267 267 263 268 263 265 281 281 277 282 282 281 280
296 298 300 302 305 305 307 309 310 312 312 312 311 310 309 308 305 300 290 293 293 286 283 285 285 285 283 282 279 276 275 270 277 267 264 264 262 260 262 261 275 267 273 271 272 273 280 282 283 283 281 280 280 280
296 297 298 301 303 304 306 309 310 311 311 311 311 310 309 308 304 301 292 291 289 283 283 284 282 284 287 285 285 278 276 280 278 277 270 265 263 271 262 264 268 274 276 275 276 277 279 281 282 281 281 281 281 281
295 297 297 300 302 304 305 308 308 309 310 311 310 310 308 307 304 298 294 295 291 287 280 279 286 282 286 286 285 284 281 280 279 275 265 262 262 274 269 271 270 273 275 270 272 277 278 280 280 281 281 280 280 281
295 296 297 300 301 304 305 307 306 305 307 310 310 309 308 306 304 298 295 292 293 290 278 277 282 283 284 284 283 283 282 279 271 269 264 267 271 271 270 270 268 273 273 273 272 276 276 280 279 280 279 279 279 279
294 296 296 299 301 303 305 305 305 304 304 308 309 309 309 303 299 294 285 292 291 288 280 274 280 281 282 281 280 278 278 271 268 269 265 268 276 271 266 263 271 275 276 277 276 276 278 278 278 277 278 275 275 274
293 295 295 297 300 301 303 303 303 304 303 305 309 309 303 301 299 290 287 291 293 289 278 272 272 279 282 280 277 275 275 272 270 262 263 268 270 269 263 265 273 274 276 276 276 277 275 277 277 278 276 274 272 269
292 295 294 297 299 300 302 302 302 303 304 303 308 304 301 302 298 289 292 297 293 287 283 272 268 272 280 274 271 274 271 269 268 265 267 266 266 268 269 272 270 269 268 271 275 273 274 271 270 269 268 268 267 267
292 294 294 296 298 299 301 301 301 301 303 304 306 302 296 287 285 287 297 296 291 287 279 270 269 269 278 274 275 273 274 264 271 268 262 269 261 266 270 269 267 272 270 269 266 262 264 268 268 264 264 263 266 265
292 293 294 295 296 299 300 300 301 301 301 303 296 286 283 285 297 295 287 285 285 285 274 268 269 269 276 275 271 271 273 263 262 263 268 264 264 271 273 271 266 266 270 266 267 266 263 265 266 264 266 263 265 265
291 292 293 294 296 299 300 300 301 302 300 290 283 280 289 295 287 285 282 282 283 280 273 267 271 271 276 271 268 272 264 263 258 261 261 254 260 267 266 271 275 269 269 269 264 264 271 270 271 269 262 259 259 263
291 292 293 293 296 298 299 299 302 297 287 288 286 286 285 285 284 281 279 276 275 274 268 269 270 273 273 272 268 270 261 262 260 256 258 257 267 268 262 263 267 271 267 266 259 262 258 260 259 264 265 263 261 260
291 293 293 294 297 298 298 300 301 295 295 291 286 283 283 282 278 274 272 276 277 270 268 271 270 272 270 270 266 262 259 260 257 259 261 266 268 263 262 257 259 261 264 264 257 256 256 255 254 260 261 256 261 261
291 292 293 294 297 297 298 299 297 297 288 285 282 278 280 277 274 273 273 274 272 273 275 275 271 273 271 270 265 263 256 257 255 256 264 269 268 267 265 258 265 268 267 267 265 261 261 262 257 254 259 263 265 264
291 292 293 296 297 297 298 298 299 289 287 283 279 275 277 270 266 262 266 273 269 279 277 274 273 273 269 266 261 258 257 259 263 267 268 269 263 262 264 261 263 269 268 268 263 263 262 260 261 258 255 257 262 263
293 293 292 296 296 296 298 298 293 287 288 284 277 275 272 273 264 263 269 272 275 280 278 276 271 268 266 264 260 264 266 268 273 267 266 261 260 259 263 265 266 270 269 267 264 262 261 260 262 263 255 257 261 265
294 286 295 296 296 296 296 291 294 287 285 281 276 270 270 275 277 272 275 276 282 280 276 268 266 270 263 259 261 265 270 275 273 266 260 259 261 262 261 261 263 266 267 266 262 260 259 257 259 260 262 260 259 259
285 289 294 295 295 294 290 285 284 280 273 274 272 269 263 267 272 271 275 281 281 278 273 272 268 264 266 265 267 274 273 269 258 260 260 256 254 257 265 266 264 267 266 263 262 260 259 261 264 266 262 260 258 256
286 288 293 296 292 285 284 280 278 267 270 270 267 266 264 265 267 276 280 281 271 272 272 267 267 268 269 270 274 273 266 264 267 263 258 254 254 260 264 261 261 260 263 262 263 265 264 264 266 265 265 263 266 262
291 291 294 294 291 283 278 277 280 274 273 270 264 265 267 270 269 278 278 268 268 269 269 268 271 272 274 272 272 270 268 266 265 262 260 258 255 258 263 266 266 261 261 259 258 259 259 258 256 262 265 266 265 263
288 288 292 287 282 281 277 275 273 272 272 268 263 267 272 267 269 267 268 266 269 266 267 270 272 272 268 265 261 263 265 267 268 269 266 261 256 258 258 257 262 264 261 264 265 262 265 268 265 265 265 265 259 261
285 289 284 284 278 277 274 275 275 272 271 266 265 265 265 265 265 268 269 268 265 271 271 273 271 271 269 268 265 263 261 262 257 259 261 265 262 261 261 263 265 264 266 267 267 267 267 262 263 265 265 260 260 259
287 286 283 281 275 275 273 273 273 269 273 267 263 265 263 263 265 267 268 267 270 270 272 269 268 269 271 266 261 260 258 263 261 258 259 258 259 262 265 265 264 267 264 263 260 266 265 262 263 264 261 261 259 257
286 282 278 275 274 270 274 272 269 268 270 265 265 267 261 267 264 263 265 263 272 271 271 272 272 273 272 266 265 263 261 261 261 259 258 263 264 259 261 264 260 260 262 263 263 261 263 265 264 263 264 263 263 264
278 275 276 271 274 272 271 263 259 265 266 258 261 264 268 262 261 260 264 271 273 273 271 270 272 276 279 268 262 262 258 262 266 265 262 259 258 260 260 256 258 261 263 266 263 263 259 262 265 264 263 265 264 264
272 271 274 274 270 267 264 265 262 262 263 259 260 259 260 262 263 267 269 271 270 264 264 265 272 274 275 271 268 264 264 258 264 265 264 265 268 267 267 266 265 267 264 265 268 267 265 265 264 263 265 264 263 264
270 268 267 258 266 266 264 261 263 268 264 265 264 262 268 265 268 268 262 259 258 256 257 260 261 263 265 264 262 259 256 261 264 266 262 267 264 265 268 268 267 269 270 269 271 268 268 266 266 266 267 265 266 267
258 257 265 261 261 260 266 262 265 265 263 259 266 266 271 274 273 257 258 258 254 255 256 259 262 263 263 260 258 258 260 259 262 267 269 266 259 259 260 261 262 269 270 273 272 270 270 269 269 268 268 268 267 267
258 254 253 258 256 257 257 260 264 256 254 261 267 263 258 253 253 254 255 255 255 254 258 261 264 264 265 262 260 259 258 260 268 268 266 265 265 268 259 260 261 263 265 268 271 270 270 270 269 269 268 267 265 264
254 251 253 253 257 254 251 252 251 252 250 253 254 255 252 252 253 254 253 252 252 253 255 257 258 262 264 266 263 260 258 257 258 262 266 265 265 260 256 258 262 262 264 268 267 268 272 266 268 265 264 263 261 261
249 249 252 254 254 254 252 252 249 249 251 254 252 254 251 253 253 253 252 252 251 254 256 257 257 256 259 261 261 260 261 257 256 255 255 255 256 256 257 258 261 262 264 267 267 265 265 264 266 266 265 264 262 262
253 250 255 258 260 256 249 252 253 255 253 254 252 250 251 252 254 255 254 254 254 254 254 254 255 255 257 258 258 258 259 257 257 257 257 258 258 259 258 260 263 265 266 266 265 265 266 266 266 265 264 263 262 262
252 250 251 255 255 255 254 257 256 254 253 251 250 247 247 252 255 252 255 253 252 252 253 254 255 256 257 259 260 261 263 264 266 269 269 268 267 266 265 266 267 267 267 266 266 266 266 265 264 263 262 261 260 260
Wind_Speed
19 18 18 21 19 15 17 19 24 23 24 24 33 38 39 39 37 12 3 1 6 4 2 2 3 5 3 3 6 5 5 4 4 3 5 4 3 5 1 4 6 8 7 5 3 3 10 2 3 3 3 4 4 4
20 18 19 21 20 16 17 16 13 26 24 26 32 36 38 35 34 13 5 2 7 7 4 2 4 2 2 2 7 1 3 5 6 6 0 4 1 2 3 5 3 4 8 6 11 9 6 2 3 3 2 3 4 4
21 21 21 21 20 17 17 18 14 13 22 26 32 34 35 36 36 14 7 6 8 5 3 3 2 3 2 3 1 6 2 4 3 2 5 3 2 5 4 8 3 6 6 5 0 6 8 5 4 3 4 3 1 2
23 22 19 22 19 18 20 17 12 9 12 24 31 32 34 35 35 16 10 6 7 5 5 2 1 3 5 4 3 2 6 6 6 3 3 4 3 2 4 3 5 6 7 6 7 11 11 13 7 5 3 3 3 2
22 21 20 20 17 20 22 19 15 11 3 17 27 30 35 37 34 13 7 4 4 4 5 4 3 4 4 4 7 7 6 6 3 3 3 4 1 2 2 2 6 8 9 9 9 7 3 1 4 4 4 1 4 2
18 23 20 21 18 18 20 19 16 10 4 8 21 28 31 37 34 11 4 3 3 4 7 4 1 3 4 8 10 7 3 4 4 5 3 2 1 3 1 5 10 9 5 5 5 4 4 3 2 1 3 2 1 2
16 19 20 13 18 14 18 17 15 9 4 2 19 25 41 41 17 8 8 8 15 5 6 5 3 2 2 3 3 3 4 2 3 2 0 3 1 4 3 7 7 7 10 6 3 5 1 4 4 6 5 3 4 3
15 20 17 21 17 15 17 16 13 7 10 5 18 36 39 31 17 6 3 24 8 7 4 6 2 1 1 1 2 1 2 3 4 3 0 2 2 1 10 16 7 3 2 4 9 4 3 3 4 3 3 3 2 1
19 18 15 19 13 17 15 17 15 9 8 7 30 35 11 6 3 4 25 9 3 4 5 4 9 6 3 2 3 2 3 1 1 1 2 3 2 11 17 10 8 12 9 5 6 4 3 3 4 3 3 2 3 3
20 14 14 15 11 19 17 15 14 13 11 38 18 6 4 2 34 16 6 3 3 0 3 5 3 4 4 3 1 3 1 3 2 5 2 3 9 18 16 12 6 8 11 10 7 3 2 5 8 7 9 5 5 5
16 13 14 17 13 19 19 16 14 10 34 4 6 4 10 16 5 3 4 4 3 3 2 4 4 8 2 5 4 2 3 2 2 5 5 3 9 9 6 14 16 10 10 11 3 3 8 6 8 9 6 6 6 7
16 16 14 18 17 21 18 15 18 16 2 10 14 8 2 4 4 6 4 3 4 8 1 6 5 5 4 4 5 2 4 2 4 1 4 6 12 8 3 5 7 12 10 10 4 5 4 5 5 5 7 7 7 6
17 20 16 17 19 20 18 8 29 34 33 12 5 6 4 2 5 10 11 6 7 6 6 5 5 5 3 3 4 4 5 5 2 2 7 12 5 5 6 1 2 3 8 9 4 3 4 3 2 5 7 3 7 6
19 19 17 20 22 20 16 20 40 27 6 6 5 10 8 7 8 7 5 7 4 7 13 7 6 4 3 3 4 6 1 3 2 2 12 7 8 7 7 4 9 13 11 11 9 8 6 7 4 1 3 7 10 10
22 24 24 22 21 20 23 34 28 2 5 4 4 7 6 3 3 2 2 6 1 12 14 7 5 3 2 6 2 6 3 5 8 9 8 5 4 5 8 7 6 11 10 9 7 8 8 7 6 5 2 4 5 8
27 23 15 22 22 20 28 35 8 1 3 4 3 6 3 6 3 2 3 6 3 13 6 4 6 4 4 6 5 10 9 9 8 8 5 2 3 5 6 8 7 9 10 10 9 6 6 7 7 7 4 4 5 9
22 2 20 19 20 18 23 6 4 4 5 4 1 1 4 4 9 4 4 6 12 13 6 6 7 8 5 3 3 7 8 7 6 5 3 4 4 6 5 6 6 9 10 8 7 6 5 5 6 5 7 5 4 4
5 7 20 17 18 6 11 2 2 3 6 1 4 4 1 2 8 3 5 13 10 4 4 6 8 5 7 8 6 7 9 4 3 3 3 2 3 3 7 11 7 8 9 8 7 7 7 9 9 7 5 6 5 3
9 6 17 22 9 4 4 2 1 7 3 2 2 3 3 2 2 6 9 8 2 4 7 3 5 6 6 6 6 3 3 4 3 3 2 3 3 5 7 6 6 6 9 9 9 8 7 7 5 6 6 8 7 5
14 8 14 18 10 2 4 3 3 5 4 4 3 2 4 2 1 7 8 2 3 4 2 3 6 5 5 4 4 4 4 4 5 2 4 3 2 4 7 8 7 7 7 6 5 5 4 2 0 5 7 8 8 9
7 3 11 8 3 4 4 3 4 3 5 5 1 4 3 3 4 3 2 0 5 4 3 5 5 4 2 1 2 1 2 5 5 4 5 3 2 2 4 2 5 5 5 7 8 6 8 8 6 6 7 6 2 3
2 6 4 3 4 3 5 3 6 3 5 3 2 3 5 3 1 2 3 4 4 5 5 4 3 2 1 3 3 4 4 5 4 3 6 9 6 6 6 7 8 7 7 8 8 9 8 4 4 6 6 4 5 3
7 3 3 4 5 5 4 1 5 2 7 3 2 6 3 2 2 3 2 4 5 3 2 3 3 2 1 0 2 2 2 5 2 2 2 1 3 4 5 6 4 7 6 5 3 5 6 7 6 7 5 4 4 3
4 2 4 4 4 5 3 3 3 5 5 4 5 5 0 3 1 3 3 4 4 1 3 4 3 3 2 2 2 2 2 3 4 2 2 4 4 1 4 4 2 2 4 5 3 3 4 6 7 6 6 6 7 7
2 3 3 6 3 6 5 3 4 6 5 2 6 2 3 2 4 1 4 4 2 2 3 3 1 1 3 2 3 3 3 4 4 4 3 4 4 3 4 2 1 3 4 7 6 5 3 4 6 7 7 7 10 10
2 3 1 5 3 6 6 6 6 7 7 5 2 3 2 5 3 6 5 1 3 4 4 3 2 1 2 1 1 1 3 3 3 3 3 5 5 5 6 6 4 5 6 3 8 9 9 8 8 10 10 9 8 8
3 2 2 1 3 7 5 3 3 6 7 7 6 4 4 4 7 4 1 4 3 3 3 4 3 2 3 4 3 3 2 1 2 3 3 5 4 4 5 6 6 5 9 9 8 8 11 10 9 10 8 5 9 10
2 5 3 4 4 2 9 5 5 5 4 2 5 5 10 11 6 1 2 1 1 5 5 4 2 1 2 2 3 3 3 2 1 4 7 5 3 2 1 1 2 4 4 9 9 7 8 9 9 9 9 9 8 8
4 5 3 7 4 8 6 4 4 2 1 3 5 4 4 1 1 3 2 4 5 3 3 4 2 3 0 2 3 4 4 3 3 4 4 1 2 3 2 1 1 1 2 4 5 6 7 6 6 7 6 4 3 3
4 2 4 4 6 4 3 1 1 1 0 3 4 4 3 3 1 1 3 3 4 3 2 2 2 3 2 1 2 5 5 4 5 3 4 3 3 3 3 2 1 1 2 5 5 4 7 5 6 4 4 3 3 3
2 2 4 5 4 2 2 1 1 1 2 4 3 5 3 3 1 1 2 3 3 3 2 3 5 5 4 5 3 3 3 2 4 3 1 2 2 3 3 1 0 2 2 4 5 4 4 3 3 5 5 5 5 5
2 3 4 6 3 1 2 1 1 4 5 4 4 3 3 3 3 3 5 5 4 5 6 5 5 4 4 2 2 2 5 4 4 2 4 2 3 3 2 3 4 4 5 5 5 5 7 7 6 6 7 8 8 8
3 2 3 5 4 1 3 3 5 4 4 4 4 1 1 1 3 1 2 1 0 2 3 3 3 4 5 4 3 3 3 2 1 4 5 7 7 6 4 4 5 7 9 8 7 8 10 12 11 12 12 11 11 11
Wind_Direction
260 254 266 244 235 237 249 218 205 202 195 193 186 185 182 179 170 152 113 352 120 91 74 48 92 139 126 145 148 184 76 320 45 90 128 215 147 219 115 227 184 174 155 202 145 224 278 207 5 61 262 312 308 331
245 255 261 248 233 230 251 228 208 196 187 184 182 176 181 177 160 139 115 47 85 74 93 54 84 41 333 133 127 176 158 163 171 92 293 96 212 52 165 266 176 253 195 182 188 217 240 258 220 226 210 250 322 321
248 251 255 261 234 219 240 217 192 209 178 182 182 184 176 169 160 141 126 145 82 109 72 107 145 330 27 20 185 121 291 162 155 155 152 174 201 128 187 240 237 244 177 226 329 253 244 211 201 205 219 159 315 281
254 242 261 254 232 223 233 189 140 152 191 183 179 180 172 165 161 133 145 143 96 113 115 134 290 27 321 4 57 78 131 80 104 69 102 130 159 156 233 256 217 208 141 186 267 279 279 266 222 205 211 153 107 322
250 234 258 241 246 220 209 158 152 125 140 179 179 177 167 162 153 113 96 68 83 110 120 116 91 2 5 60 74 76 97 99 100 71 82 222 213 70 308 335 245 189 188 183 219 231 192 275 155 161 190 64 17 28
254 222 249 217 246 213 185 149 146 140 103 192 182 174 163 141 133 119 76 316 128 126 110 118 358 32 32 71 67 53 43 73 82 125 208 271 177 116 274 248 253 216 212 181 217 183 182 102 174 137 140 123 77 41
235 241 224 229 229 218 185 144 127 143 137 262 174 170 144 149 153 140 174 162 153 125 92 108 93 14 338 75 49 38 27 71 102 118 70 164 234 125 209 244 255 212 215 203 207 129 143 195 208 172 127 124 93 89
226 245 209 226 217 215 180 146 142 159 181 291 160 147 148 143 92 50 27 129 131 88 91 119 75 84 236 105 73 149 66 20 2 163 149 150 342 205 253 241 242 240 310 197 201 209 171 107 91 83 61 91 71 135
230 232 206 225 219 202 160 150 159 171 168 249 140 136 104 39 98 122 116 80 60 115 136 120 141 181 167 133 108 26 114 51 279 164 245 106 250 228 227 225 208 201 197 219 124 96 74 167 188 141 120 54 153 210
220 216 216 211 255 184 173 161 168 173 204 130 118 76 115 170 116 98 18 51 47 33 54 94 109 140 151 118 128 112 141 176 193 243 125 194 253 261 252 225 204 193 180 146 112 231 197 236 199 194 204 192 188 187
218 215 213 206 246 185 169 169 173 159 145 104 98 91 129 111 74 74 130 155 146 154 140 165 134 134 205 135 155 202 170 152 119 249 148 272 269 246 242 216 208 188 180 196 165 170 189 169 184 193 211 210 183 170
222 220 205 219 211 180 178 182 155 159 149 123 104 98 101 108 102 124 147 125 158 203 187 129 156 132 144 121 108 170 127 71 223 143 77 266 250 242 234 233 209 171 165 176 197 167 172 178 193 171 155 169 179 169
219 207 206 222 194 180 179 172 154 125 114 106 116 133 123 101 137 163 179 196 172 158 177 156 116 122 104 79 83 106 109 196 58 79 231 235 256 259 216 185 116 126 131 134 140 107 135 147 154 148 154 170 148 147
217 218 207 220 195 191 180 175 145 138 106 72 139 142 184 181 220 181 159 133 177 136 134 134 106 118 127 115 135 112 235 93 57 265 235 244 227 217 167 177 143 174 171 166 168 159 164 171 173 56 115 147 148 156
220 216 210 202 186 185 153 165 165 91 96 145 147 160 186 137 63 96 112 105 157 142 134 107 81 110 114 100 62 113 61 244 215 230 232 239 241 183 160 171 180 162 162 165 155 169 174 161 153 137 168 142 127 131
191 187 191 181 177 147 166 177 183 82 84 130 97 105 117 92 311 67 94 112 184 143 105 71 119 114 189 136 124 214 150 217 238 222 233 218 217 220 175 172 178 161 163 158 169 156 133 153 165 157 137 167 165 161
159 85 164 172 181 151 179 183 228 100 148 119 143 62 130 105 150 148 151 148 157 149 152 132 118 189 99 65 252 193 209 224 223 243 231 208 190 201 153 118 154 156 159 158 138 136 139 121 122 128 162 203 170 172
75 145 157 168 164 181 176 60 153 95 82 72 110 185 59 69 125 143 154 149 143 174 143 177 123 136 181 173 242 222 225 264 227 240 253 249 256 205 161 169 171 163 153 142 137 139 142 158 169 184 145 150 123 143
136 131 175 165 114 118 133 58 71 101 96 124 71 58 88 156 243 108 114 138 63 110 107 54 117 180 212 215 214 232 247 214 224 222 257 271 240 189 143 115 114 118 142 147 154 169 173 176 178 160 153 161 179 174
126 131 160 168 145 139 103 57 67 89 123 157 78 58 94 82 66 103 124 44 89 96 69 174 213 217 194 223 192 202 204 165 132 71 305 293 241 160 154 163 161 137 124 115 106 117 119 101 211 157 169 178 165 185
109 174 161 105 91 50 92 111 77 100 112 77 209 77 78 22 66 117 129 30 60 201 222 210 232 249 122 209 152 174 198 177 186 174 183 169 210 156 128 115 132 143 139 162 168 175 179 194 170 176 172 181 183 148
148 133 104 93 98 80 78 3 107 119 70 126 64 85 82 68 124 174 150 60 231 232 194 186 226 93 245 239 201 214 232 144 99 86 62 125 144 157 182 171 153 171 180 182 180 183 190 171 148 158 169 148 133 126
143 110 114 103 87 65 109 115 99 51 114 165 43 73 35 71 243 9 148 210 242 240 172 162 160 116 237 173 214 210 184 124 120 163 215 176 101 98 116 166 156 161 178 218 174 165 165 148 155 161 137 135 131 135
41 64 96 102 93 101 126 66 60 89 101 70 81 103 61 157 250 53 216 244 243 162 176 188 161 98 26 352 306 255 171 128 111 94 202 123 120 220 146 155 151 132 141 125 136 132 153 165 149 153 165 167 177 181
126 41 112 87 103 110 107 78 35 62 90 88 93 114 199 112 81 155 228 261 227 207 196 149 170 198 191 254 289 277 213 151 148 166 218 139 118 78 62 55 213 208 160 139 159 166 162 143 170 167 171 187 192 196
99 319 47 118 112 128 170 123 153 147 125 97 127 197 68 104 107 234 219 294 32 12 13 16 11 273 256 252 191 235 242 171 127 104 232 177 173 155 161 162 166 238 204 169 155 173 176 176 173 180 196 192 177 181
130 91 25 174 139 115 97 61 90 95 103 137 160 150 121 133 224 237 60 27 360 358 320 309 330 354 342 315 305 323 305 112 205 187 185 155 158 185 151 162 190 221 165 179 178 167 176 182 189 194 196 187 202 207
18 2 95 337 45 6 116 80 96 114 142 220 122 147 172 184 192 43 20 20 284 303 282 266 247 273 282 277 294 316 29 27 38 84 85 60 44 48 34 274 280 161 163 179 176 164 170 174 181 185 196 203 198 197
26 354 17 25 34 46 41 77 111 189 190 166 123 162 163 64 360 340 325 327 305 280 342 13 57 341 173 77 44 25 28 25 72 75 81 214 318 275 335 339 45 115 126 124 144 148 161 158 167 178 182 182 164 133
347 348 76 37 58 58 284 130 170 268 210 119 109 103 63 38 25 326 331 334 359 343 320 303 309 347 8 29 65 29 22 19 37 94 142 206 242 299 325 287 229 169 118 122 119 107 109 80 86 72 79 82 94 104
312 10 80 56 80 279 249 324 306 218 60 65 13 82 107 141 334 352 348 332 300 329 24 26 42 21 35 31 34 66 22 337 8 36 39 255 281 301 306 285 137 101 88 104 104 91 95 83 98 114 113 101 87 89
345 66 117 101 120 173 41 110 93 67 26 47 18 64 43 59 58 3 356 351 24 30 13 16 27 11 354 329 272 247 251 281 300 323 345 354 4 339 342 54 78 82 82 82 84 86 87 89 86 85 86 80 74 71
47 55 57 104 75 13 279 97 43 67 40 54 27 52 59 88 118 301 330 48 310 288 328 334 313 303 304 301 308 308 304 289 321 49 67 59 59 56 47 58 74 80 86 82 76 81 83 87 82 78 76 78 77 76